| time (UTC) | temp C | wind direction | speed KPH | gust KPH | rain 1hr cm | rain 24hr cm | rain mn cm | humidity % | barometer mb |
| 20260906114633 | 8 | 104 | 0.0 | 0.0 | 0.00 | 0.00 | 0.00 | 99 | 1014.8 |
| 20260906113601 | 8 | 104 | 0.0 | 0.0 | 0.00 | 0.00 | 0.00 | 98 | 1014.7 |
| 20260906112542 | 9 | 104 | 0.0 | 0.0 | 0.00 | 0.00 | 0.00 | 98 | 1014.7 |
| 20260906111507 | 9 | 104 | 0.0 | 0.0 | 0.00 | 0.00 | 0.00 | 98 | 1014.9 |
| 20260906110446 | 9 | 104 | 0.0 | 0.0 | 0.00 | 0.00 | 0.00 | 98 | 1015.1 |
| 20260906105427 | 9 | 104 | 0.0 | 0.0 | 0.00 | 0.00 | 0.00 | 98 | 1014.9 |
| 20260906104420 | 10 | 104 | 0.0 | 0.0 | 0.00 | 0.00 | 0.00 | 98 | 1014.9 |
| 20260906103347 | 10 | 104 | 0.0 | 0.0 | 0.00 | 0.00 | 0.00 | 98 | 1014.8 |
| 20260906102316 | 10 | 104 | 0.0 | 0.0 | 0.00 | 0.00 | 0.00 | 98 | 1014.8 |
| 20260906101244 | 10 | 104 | 0.0 | 0.0 | 0.00 | 0.00 | 0.00 | 97 | 1014.9 |
| 20260906100216 | 10 | 103 | 0.0 | 0.0 | 0.00 | 0.00 | 0.00 | 97 | 1014.8 |
| 20260906095149 | 10 | 103 | 0.0 | 0.0 | 0.00 | 0.00 | 0.00 | 97 | 1014.8 |
| 20260906094127 | 10 | 104 | 0.0 | 0.0 | 0.00 | 0.00 | 0.00 | 97 | 1015.1 |
| 20260906093111 | 10 | 104 | 0.0 | 0.0 | 0.00 | 0.00 | 0.00 | 97 | 1014.9 |
| 20260906092108 | 10 | 104 | 0.0 | 0.0 | 0.00 | 0.00 | 0.00 | 97 | 1014.9 |
| 20260906091054 | 10 | 104 | 0.0 | 0.0 | 0.00 | 0.00 | 0.00 | 96 | 1015.0 |
| 20260906090041 | 10 | 107 | 0.0 | 0.0 | 0.00 | 0.00 | 0.00 | 96 | 1014.9 |
| 20260906085022 | 10 | 106 | 0.0 | 0.0 | 0.00 | 0.00 | 0.00 | 96 | 1015.0 |
| 20260906084013 | 10 | 107 | 0.0 | 0.0 | 0.00 | 0.00 | 0.00 | 96 | 1014.8 |
| 20260906082941 | 10 | 106 | 0.0 | 0.0 | 0.00 | 0.00 | 0.00 | 97 | 1014.9 |
| 20260906081939 | 11 | 106 | 0.0 | 0.0 | 0.00 | 0.00 | 0.00 | 96 | 1014.8 |
| 20260906080901 | 11 | 106 | 0.0 | 0.0 | 0.00 | 0.00 | 0.00 | 97 | 1014.8 |
| 20260906075852 | 11 | 106 | 0.0 | 0.0 | 0.00 | 0.00 | 0.00 | 96 | 1014.7 |
| 20260906074841 | 11 | 107 | 0.0 | 0.0 | 0.00 | 0.00 | 0.00 | 96 | 1014.8 |
| 20260906073818 | 11 | 107 | 0.0 | 0.0 | 0.00 | 0.00 | 0.00 | 96 | 1015.1 |
| 20260906072801 | 11 | 107 | 0.0 | 0.0 | 0.00 | 0.00 | 0.00 | 96 | 1015.0 |
| 20260906071745 | 11 | 107 | 0.0 | 0.0 | 0.00 | 0.00 | 0.00 | 96 | 1015.4 |
| 20260906070721 | 11 | 107 | 0.0 | 0.0 | 0.00 | 0.00 | 0.00 | 95 | 1015.1 |
| 20260906065717 | 11 | 107 | 0.0 | 0.0 | 0.00 | 0.00 | 0.00 | 95 | 1015.1 |
| 20260906064705 | 11 | 107 | 0.0 | 0.0 | 0.00 | 0.00 | 0.00 | 94 | 1015.1 |
| 20260906063628 | 11 | 107 | 0.0 | 0.0 | 0.00 | 0.00 | 0.00 | 94 | 1015.1 |
| 20260906062615 | 11 | 106 | 0.0 | 0.0 | 0.00 | 0.00 | 0.00 | 93 | 1015.1 |
| 20260906061538 | 11 | 106 | 0.0 | 0.0 | 0.00 | 0.00 | 0.00 | 92 | 1015.3 |
| 20260906060531 | 12 | 107 | 0.0 | 0.0 | 0.00 | 0.00 | 0.00 | 91 | 1015.1 |
| 20260906055512 | 12 | 107 | 0.0 | 0.0 | 0.00 | 0.00 | 0.00 | 91 | 1015.2 |
| 20260906054501 | 12 | 107 | 0.0 | 0.0 | 0.00 | 0.00 | 0.00 | 90 | 1015.4 |
| 20260906053450 | 12 | 107 | 0.0 | 0.0 | 0.00 | 0.00 | 0.00 | 89 | 1015.3 |
| 20260906052427 | 12 | 107 | 0.0 | 0.0 | 0.00 | 0.00 | 0.00 | 88 | 1015.4 |
| 20260906051404 | 13 | 107 | 0.0 | 0.0 | 0.00 | 0.00 | 0.00 | 87 | 1015.4 |
| 20260906050342 | 13 | 108 | 0.0 | 0.0 | 0.00 | 0.00 | 0.00 | 87 | 1015.4 |
| 20260906045325 | 13 | 108 | 0.0 | 0.0 | 0.00 | 0.00 | 0.00 | 87 | 1015.6 |
| 20260906044306 | 13 | 108 | 0.0 | 0.0 | 0.00 | 0.00 | 0.00 | 86 | 1015.6 |
| 20260906043241 | 13 | 105 | 0.0 | 0.0 | 0.00 | 0.00 | 0.00 | 85 | 1015.4 |
| 20260906042207 | 13 | 103 | 0.0 | 0.0 | 0.00 | 0.00 | 0.00 | 86 | 1015.7 |
| 20260906041138 | 13 | 107 | 0.0 | 0.0 | 0.00 | 0.00 | 0.00 | 84 | 1015.7 |
| 20260906040129 | 13 | 107 | 0.0 | 0.0 | 0.00 | 0.00 | 0.00 | 83 | 1015.5 |
| 20260906035058 | 14 | 107 | 0.0 | 0.0 | 0.00 | 0.00 | 0.00 | 81 | 1015.6 |
| 20260906034056 | 14 | 107 | 0.0 | 0.0 | 0.00 | 0.00 | 0.00 | 80 | 1015.4 |
| 20260906033044 | 14 | 108 | 0.0 | 0.0 | 0.00 | 0.00 | 0.00 | 79 | 1015.5 |
| 20260906032042 | 15 | 104 | 0.0 | 0.0 | 0.00 | 0.00 | 0.00 | 78 | 1015.1 |
| 20260906031034 | 15 | 104 | 0.0 | 0.0 | 0.00 | 0.00 | 0.00 | 79 | 1015.2 |
| 20260906030011 | 15 | 104 | 0.0 | 0.0 | 0.00 | 0.00 | 0.00 | 77 | 1015.2 |
| 20260906024959 | 16 | 104 | 0.0 | 0.0 | 0.00 | 0.00 | 0.00 | 74 | 1015.2 |
| 20260906023929 | 16 | 105 | 0.0 | 0.0 | 0.00 | 0.00 | 0.00 | 73 | 1015.3 |
| 20260906022908 | 16 | 104 | 0.0 | 0.0 | 0.00 | 0.00 | 0.00 | 69 | 1015.2 |
| 20260906021851 | 17 | 105 | 0.0 | 0.0 | 0.00 | 0.00 | 0.00 | 67 | 1015.2 |
| 20260906020848 | 17 | 103 | 0.0 | 0.0 | 0.00 | 0.00 | 0.00 | 67 | 1015.3 |
| 20260906015831 | 18 | 107 | 0.0 | 0.0 | 0.00 | 0.00 | 0.00 | 61 | 1015.2 |
| 20260906014759 | 19 | 101 | 0.0 | 0.0 | 0.00 | 0.00 | 0.00 | 57 | 1015.2 |
| 20260906013732 | 19 | 106 | 0.0 | 0.0 | 0.00 | 0.00 | 0.00 | 60 | 1015.0 |
| 20260906012658 | 19 | 98 | 0.0 | 0.0 | 0.00 | 0.00 | 0.00 | 56 | 1015.1 |
| 20260906011647 | 20 | 101 | 0.0 | 0.0 | 0.00 | 0.00 | 0.00 | 55 | 1015.0 |
| 20260906010626 | 20 | 98 | 0.0 | 0.0 | 0.00 | 0.00 | 0.00 | 55 | 1015.0 |
| 20260906005624 | 19 | 99 | 0.0 | 0.0 | 0.00 | 0.00 | 0.00 | 55 | 1015.1 |
| 20260906004557 | 20 | 89 | 0.0 | 1.6 | 0.00 | 0.00 | 0.00 | 54 | 1015.1 |
| 20260906003547 | 20 | 73 | 3.2 | 3.2 | 0.00 | 0.00 | 0.00 | 55 | 1014.9 |
| 20260906002503 | 20 | 102 | 0.0 | 0.0 | 0.00 | 0.00 | 0.00 | 56 | 1014.9 |
| 20260906001455 | 21 | 101 | 0.0 | 0.0 | 0.00 | 0.00 | 0.00 | 52 | 1015.0 |
| 20260906000421 | 20 | 73 | 1.6 | 3.2 | 0.00 | 0.00 | 0.00 | 53 | 1015.1 |
| 20260905235352 | 20 | 101 | 3.2 | 3.2 | 0.00 | 0.00 | 0.00 | 55 | 1015.1 |
| 20260905234337 | 20 | 93 | 1.6 | 3.2 | 0.00 | 0.00 | 0.00 | 55 | 1015.2 |
| 20260905233335 | 20 | 99 | 1.6 | 1.6 | 0.00 | 0.00 | 0.00 | 56 | 1015.0 |
| 20260905232332 | 20 | 98 | 0.0 | 0.0 | 0.00 | 0.00 | 0.00 | 60 | 1015.1 |
| 20260905231306 | 20 | 103 | 0.0 | 0.0 | 0.00 | 0.00 | 0.00 | 62 | 1015.0 |
| 20260905230256 | 20 | 99 | 0.0 | 0.0 | 0.00 | 0.00 | 0.00 | 63 | 1015.1 |
| 20260905225243 | 20 | 70 | 3.2 | 3.2 | 0.00 | 0.00 | 0.00 | 60 | 1015.3 |
| 20260905224238 | 21 | 106 | 0.0 | 0.0 | 0.00 | 0.00 | 0.00 | 57 | 1015.4 |
| 20260905223234 | 20 | 151 | 1.6 | 1.6 | 0.00 | 0.00 | 0.00 | 56 | 1015.6 |
| 20260905222220 | 20 | 106 | 0.0 | 0.0 | 0.00 | 0.03 | 0.00 | 58 | 1015.7 |
| 20260905221154 | 20 | 107 | 0.0 | 0.0 | 0.00 | 0.03 | 0.00 | 62 | 1015.9 |
| 20260905220139 | 20 | 97 | 0.0 | 0.0 | 0.00 | 0.03 | 0.00 | 60 | 1015.9 |
| 20260905215114 | 20 | 92 | 1.6 | 3.2 | 0.00 | 0.03 | 0.00 | 61 | 1016.1 |
| 20260905214055 | 18 | 105 | 0.0 | 0.0 | 0.00 | 0.03 | 0.00 | 66 | 1016.1 |
| 20260905213026 | 18 | 106 | 0.0 | 0.0 | 0.00 | 0.03 | 0.00 | 66 | 1016.2 |
| 20260905212022 | 18 | 102 | 0.0 | 0.0 | 0.00 | 0.03 | 0.00 | 71 | 1016.2 |
| 20260905211000 | 17 | 105 | 0.0 | 0.0 | 0.00 | 0.03 | 0.00 | 76 | 1016.5 |
| 20260905205924 | 16 | 108 | 0.0 | 0.0 | 0.00 | 0.03 | 0.00 | 79 | 1016.6 |
| 20260905204910 | 15 | 104 | 0.0 | 0.0 | 0.00 | 0.03 | 0.00 | 81 | 1016.6 |
| 20260905203843 | 15 | 104 | 0.0 | 0.0 | 0.00 | 0.03 | 0.00 | 84 | 1016.7 |
| 20260905202839 | 15 | 104 | 0.0 | 0.0 | 0.00 | 0.03 | 0.00 | 85 | 1016.6 |
| 20260905201836 | 14 | 104 | 0.0 | 0.0 | 0.00 | 0.03 | 0.00 | 86 | 1016.6 |
| 20260905200832 | 14 | 104 | 0.0 | 0.0 | 0.00 | 0.03 | 0.00 | 87 | 1016.8 |
| 20260905195828 | 14 | 104 | 0.0 | 0.0 | 0.00 | 0.03 | 0.00 | 87 | 1016.8 |
| 20260905194755 | 14 | 104 | 0.0 | 0.0 | 0.00 | 0.03 | 0.00 | 88 | 1016.8 |
| 20260905193753 | 14 | 104 | 0.0 | 0.0 | 0.00 | 0.03 | 0.00 | 87 | 1016.7 |
| 20260905192753 | 14 | 104 | 0.0 | 0.0 | 0.00 | 0.03 | 0.00 | 85 | 1016.8 |
| 20260905191743 | 15 | 104 | 0.0 | 0.0 | 0.00 | 0.03 | 0.00 | 83 | 1016.9 |
| 20260905190731 | 15 | 104 | 0.0 | 0.0 | 0.00 | 0.03 | 0.00 | 83 | 1017.1 |
| 20260905185729 | 15 | 104 | 0.0 | 0.0 | 0.00 | 0.03 | 0.00 | 83 | 1017.1 |
| 20260905184723 | 15 | 117 | 0.0 | 0.0 | 0.00 | 0.03 | 0.00 | 81 | 1017.1 |
| 20260905183703 | 15 | 116 | 0.0 | 0.0 | 0.00 | 0.03 | 0.00 | 81 | 1017.2 |
| 20260905182651 | 15 | 120 | 0.0 | 0.0 | 0.00 | 0.03 | 0.00 | 81 | 1017.2 |
| 20260905181642 | 15 | 102 | 0.0 | 0.0 | 0.00 | 0.03 | 0.00 | 82 | 1017.2 |
| 20260905180622 | 14 | 123 | 0.0 | 0.0 | 0.00 | 0.03 | 0.00 | 82 | 1017.3 |
| 20260905175543 | 14 | 112 | 0.0 | 0.0 | 0.00 | 0.03 | 0.00 | 82 | 1017.3 |
| 20260905174521 | 14 | 105 | 0.0 | 0.0 | 0.00 | 0.03 | 0.00 | 82 | 1017.4 |
| 20260905173519 | 14 | 104 | 0.0 | 0.0 | 0.00 | 0.03 | 0.00 | 82 | 1017.1 |
| 20260905172449 | 14 | 102 | 0.0 | 0.0 | 0.00 | 0.03 | 0.00 | 83 | 1017.2 |
| 20260905171446 | 13 | 102 | 0.0 | 0.0 | 0.00 | 0.03 | 0.00 | 85 | 1017.1 |
| 20260905170431 | 13 | 102 | 0.0 | 0.0 | 0.00 | 0.03 | 0.00 | 87 | 1016.9 |
| 20260905165413 | 13 | 102 | 0.0 | 0.0 | 0.00 | 0.03 | 0.00 | 89 | 1017.0 |
| 20260905164353 | 12 | 102 | 0.0 | 0.0 | 0.00 | 0.03 | 0.00 | 89 | 1016.8 |
| 20260905163352 | 12 | 101 | 0.0 | 0.0 | 0.00 | 0.03 | 0.00 | 90 | 1017.0 |
| 20260905162340 | 12 | 101 | 0.0 | 0.0 | 0.00 | 0.03 | 0.00 | 89 | 1016.8 |
| 20260905161334 | 13 | 101 | 0.0 | 0.0 | 0.00 | 0.03 | 0.00 | 89 | 1016.8 |
| 20260905160321 | 13 | 102 | 0.0 | 0.0 | 0.00 | 0.03 | 0.00 | 90 | 1016.8 |
| 20260905155314 | 12 | 102 | 0.0 | 0.0 | 0.00 | 0.03 | 0.00 | 92 | 1016.9 |
| 20260905154303 | 11 | 101 | 0.0 | 0.0 | 0.00 | 0.03 | 0.00 | 97 | 1016.7 |
| 20260905153256 | 11 | 101 | 0.0 | 0.0 | 0.00 | 0.03 | 0.00 | 99 | 1016.7 |
| 20260905152240 | 11 | 101 | 0.0 | 0.0 | 0.00 | 0.03 | 0.00 | 99 | 1016.8 |
| 20260905151223 | 11 | 101 | 0.0 | 0.0 | 0.00 | 0.03 | 0.00 | 99 | 1016.7 |
| 20260905150159 | 11 | 101 | 0.0 | 0.0 | 0.00 | 0.03 | 0.00 | 99 | 1016.7 |
| 20260905145156 | 10 | 101 | 0.0 | 0.0 | 0.00 | 0.03 | 0.00 | 99 | 1016.5 |
| 20260905144153 | 10 | 101 | 0.0 | 0.0 | 0.00 | 0.03 | 0.00 | 99 | 1016.5 |
| 20260905143134 | 10 | 101 | 0.0 | 0.0 | 0.00 | 0.03 | 0.00 | 99 | 1016.7 |
| 20260905142101 | 10 | 101 | 0.0 | 0.0 | 0.00 | 0.05 | 0.00 | 99 | 1016.4 |
| 20260905141054 | 9 | 101 | 0.0 | 0.0 | 0.00 | 0.05 | 0.00 | 99 | 1016.2 |
| 20260905140033 | 9 | 101 | 0.0 | 0.0 | 0.00 | 0.08 | 0.00 | 99 | 1016.2 |
| 20260905135005 | 9 | 101 | 0.0 | 0.0 | 0.00 | 0.08 | 0.00 | 99 | 1016.2 |
| 20260905133933 | 9 | 101 | 0.0 | 0.0 | 0.00 | 0.08 | 0.00 | 99 | 1016.3 |
| 20260905132901 | 9 | 100 | 0.0 | 0.0 | 0.00 | 0.08 | 0.00 | 99 | 1016.1 |
| 20260905131858 | 9 | 101 | 0.0 | 0.0 | 0.00 | 0.08 | 0.00 | 99 | 1016.2 |
| 20260905130837 | 9 | 101 | 0.0 | 0.0 | 0.00 | 0.08 | 0.00 | 99 | 1016.1 |
| 20260905125831 | 9 | 102 | 0.0 | 0.0 | 0.00 | 0.08 | 0.00 | 99 | 1016.2 |
| 20260905124824 | 9 | 103 | 0.0 | 0.0 | 0.00 | 0.08 | 0.00 | 99 | 1015.8 |
| 20260905123754 | 9 | 104 | 0.0 | 0.0 | 0.00 | 0.08 | 0.00 | 99 | 1016.0 |
| 20260905122744 | 9 | 104 | 0.0 | 0.0 | 0.00 | 0.08 | 0.00 | 99 | 1016.0 |
| 20260905121728 | 9 | 104 | 0.0 | 0.0 | 0.00 | 0.08 | 0.00 | 99 | 1016.0 |
| 20260905120704 | 9 | 104 | 0.0 | 0.0 | 0.00 | 0.08 | 0.00 | 99 | 1015.8 |
| 20260905115641 | 9 | 104 | 0.0 | 0.0 | 0.00 | 0.08 | 0.00 | 99 | 1016.0 |